Location: Enborne
(51.3833°N, 1.3667°W)
Time: 14:30:59
(UTC+00:00)

MetOp-A - Visible Passes

Search period start: 20 January 2021 00:00
Search period end: 30 January 2021 00:00
Orbit: 819 x 821 km, 98.5° (Epoch: 20 January)

Date Brightness Start Highest point End Pass type
(mag) Time Alt. Az. Time Alt. Az. Time Alt. Az.
20 Jan 5.9 17:23:55 10° NE 17:24:52 10° NE 17:25:51 10° NE visible
20 Jan 4.5 19:04:29 43° NE 19:04:29 43° NE 19:08:52 10° N visible
20 Jan 6.0 20:45:49 26° WNW 20:45:49 26° WNW 20:48:51 10° NNW visible
21 Jan 7.2 07:12:21 10° ENE 07:14:26 12° E 07:16:31 10° ESE visible
21 Jan 4.8 18:43:19 33° ENE 18:43:19 33° ENE 18:47:57 10° N visible
21 Jan 5.4 20:24:40 37° WNW 20:24:40 37° WNW 20:28:21 10° NNW visible
22 Jan 5.1 18:22:09 24° ENE 18:22:41 25° ENE 18:26:56 10° N visible
22 Jan 4.7 20:03:30 52° NW 20:03:30 52° NW 20:07:44 10° NNW visible
22 Jan 7.1 21:44:51 10° WNW 21:44:51 10° WNW 21:45:07 10° WNW visible
23 Jan 5.5 18:00:59 17° ENE 18:02:13 18° NE 18:05:48 10° NNE visible
23 Jan 4.2 19:42:20 69° N 19:42:20 69° N 19:47:02 10° NNW visible
23 Jan 6.7 21:23:40 16° WNW 21:23:40 16° WNW 21:25:52 10° NW visible
24 Jan 5.8 17:39:48 11° ENE 17:41:49 14° NE 17:44:24 10° NNE visible
24 Jan 4.1 19:21:09 61° ENE 19:21:09 61° ENE 19:26:15 10° N visible
24 Jan 6.2 21:02:30 23° WNW 21:02:30 23° WNW 21:05:47 10° NW visible
25 Jan 4.4 18:59:58 43° ENE 19:00:19 44° ENE 19:05:24 10° N visible
25 Jan 5.7 20:41:20 33° WNW 20:41:20 33° WNW 20:45:26 10° NNW visible
26 Jan 7.3 07:09:12 10° ENE 07:10:55 11° E 07:12:38 10° ESE visible
26 Jan 4.8 18:38:48 30° E 18:39:45 32° ENE 18:44:28 10° N visible
26 Jan 5.0 20:20:08 48° W 20:20:08 48° W 20:24:55 10° NNW visible
27 Jan 5.2 18:17:36 20° E 18:19:15 24° ENE 18:23:26 10° N visible
27 Jan 4.3 19:58:57 70° W 19:58:57 70° W 20:04:17 10° NNW visible
27 Jan 6.9 21:40:18 12° W 21:40:18 12° W 21:42:00 10° WNW visible
28 Jan 5.5 17:56:25 13° E 17:58:48 18° NE 18:02:16 10° NNE visible
28 Jan 4.0 19:37:46 76° SE 19:38:10 83° ENE 19:43:34 10° NNW visible
28 Jan 6.5 21:19:06 18° W 21:19:06 18° W 21:22:32 10° NW visible
29 Jan 5.8 17:36:02 10° ENE 17:38:25 13° NE 17:40:48 10° NNE visible
29 Jan 4.1 19:16:34 51° ESE 19:17:30 59° ENE 19:22:46 10° N visible
29 Jan 6.0 20:57:55 25° W 20:57:59 25° W 21:02:24 10° NW visible
